Weather History for Eureka, NV

Change the Weather History Date:

Monday, March 3, 2014

  Actual Average Record
Temperature  
Mean Temperature 43 °F 34 °F  
Max Temperature 57 °F 48 °F 65 °F (1994)
Min Temperature 28 °F 20 °F 3 °F (1966)
Degree Days  
Heating Degree Days 22 31  
Month to date heating degree days 74 94  
Since 1 July heating degree days 4878 5379  
Cooling Degree Days 0 0  
Month to date cooling degree days 0 0  
Year to date cooling degree days 0 0  
Moisture  
Dew Point 29 °F    
Average Humidity 61    
Maximum Humidity 92    
Minimum Humidity 30    
Precipitation  
Precipitation 0.00 in 0.03 in 0.78 in (1992)
Month to date precipitation 0.04 0.09  
Year to date precipitation 1.78 1.69  
Sea Level Pressure  
Sea Level Pressure 30.00 in    
Wind  
Wind Speed 6 mph (SW)    
Max Wind Speed 16 mph    
Max Gust Speed 21 mph    
T = Trace of Precipitation, MM = Missing Value Source: NWS Daily Summary

Daily Weather History Graph

Daily Weather History Graph

Search for Another Location

Airport:

Trip Planner

Search our weather history database for the weather conditions in past years. The results will help you decide how hot, cold, wet, or windy it might be!

Date:

Astronomy

Mar. 03, 2014 Rise Set
Actual Time 6:13 AM PST 5:38 PM PST
Civil Twilight 5:46 AM PST 6:05 PM PST
Nautical Twilight 5:15 AM PST 6:36 PM PST
Astronomical Twilight 4:44 AM PST 7:07 PM PST
Moon 7:25 AM PST (3/3) 8:45 PM PST (3/3)
Length of Visible Light 12h 18m
Length of Day
11h 24m
Waxing Crescent, 8% of the Moon is Illuminated
Mar 3
Waxing Crescent
Mar 8
First Quarter
Mar 16
Full
Mar 23
Last Quarter
Mar 30
New

Hourly Weather History & Observations

Time (PST) Temp. Windchill Dew Point Humidity Pressure Visibility Wind Dir Wind Speed Gust Speed Precip Events Conditions
12:53 AM 32.0 °F 26.4 °F 28.9 °F 88% 30.06 in - SSW 5.8 mph - N/A   Unknown
1:53 AM 34.0 °F 31.0 °F 28.9 °F 82% 30.03 in - Variable 3.5 mph - N/A   Unknown
2:53 AM 30.0 °F - 27.0 °F 88% 30.06 in - Calm Calm - N/A   Unknown
3:53 AM 28.9 °F 25.2 °F 26.1 °F 89% 30.09 in - SSE 3.5 mph - N/A   Unknown
4:53 AM 28.9 °F - 27.0 °F 92% 30.09 in - Calm Calm - N/A   Unknown
5:53 AM 28.9 °F 21.9 °F 26.1 °F 89% 30.08 in - SSW 6.9 mph - N/A   Unknown
6:53 AM 30.9 °F - 28.0 °F 89% 30.08 in - Calm Calm - N/A   Unknown
7:53 AM 36.0 °F 30.3 °F 30.9 °F 82% 30.08 in - SW 6.9 mph - N/A   Unknown
8:53 AM 41.0 °F 35.8 °F 30.9 °F 67% 30.06 in - SW 8.1 mph - N/A   Unknown
9:53 AM 46.9 °F - 32.0 °F 56% 30.04 in - SW 4.6 mph - N/A   Unknown
10:53 AM 51.1 °F - 30.9 °F 46% 30.02 in - WSW 6.9 mph - N/A   Unknown
11:53 AM 54.0 °F - 30.9 °F 41% 30.02 in - West 11.5 mph - N/A   Unknown
12:53 PM 54.0 °F - 30.9 °F 41% 29.98 in - WSW 8.1 mph - N/A   Unknown
1:53 PM 55.0 °F - 30.9 °F 40% 29.94 in - WSW 8.1 mph - N/A   Unknown
2:53 PM 55.9 °F - 25.0 °F 30% 29.95 in - West 11.5 mph - N/A   Unknown
3:53 PM 54.0 °F - 25.0 °F 33% 29.95 in - West 8.1 mph - N/A   Unknown
4:53 PM 52.0 °F - 28.0 °F 40% 29.96 in - West 9.2 mph - N/A   Unknown
5:53 PM 50.0 °F - 30.0 °F 46% 29.97 in - West 9.2 mph - N/A   Unknown
6:53 PM 48.0 °F - 32.0 °F 54% 29.98 in - South 5.8 mph - N/A   Unknown
7:53 PM 46.9 °F - 30.0 °F 52% 29.96 in - SW 8.1 mph - N/A   Unknown
8:53 PM 43.0 °F 38.2 °F 32.0 °F 65% 29.96 in - SSE 8.1 mph - N/A   Unknown
9:53 PM 43.0 °F 39.5 °F 32.0 °F 65% 29.93 in - South 5.8 mph - N/A   Unknown
10:53 PM 41.0 °F 38.0 °F 32.0 °F 70% 29.91 in - South 4.6 mph - N/A   Unknown
11:53 PM 37.0 °F - 30.0 °F 76% 29.91 in - Calm Calm - N/A   Unknown